Location: *
(70.5510°N, 28.6080°W)
Time: 14:10:23
(UTC+00:00)

Daily predictions for brighter satellites

Satellite Brightness Start Highest point End
(mag) Time Altitude Azimuth Time Altitude Azimuth Time Altitude Azimuth
ARGOS 3.8 19:25:31 10° E 19:30:29 38° NNE 19:35:28 10° NW
CENTAUR R/B 4.4 19:28:37 10° ESE 19:30:32 11° ESE 19:32:30 10° E
NOAA 12 4.4 19:25:29 10° SSE 19:30:50 77° WSW 19:36:14 10° NNW
Cosmos 1110 Rocket 4.3 19:25:52 10° NW 19:31:08 75° SW 19:36:26 10° SE
Cosmos 2279 Rocket 4.5 19:25:46 10° NNW 19:31:41 42° NE 19:37:37 10° ESE
CZ-4 R/B 2.6 19:27:52 10° S 19:31:43 47° WSW 19:35:30 10° NNW
Envisat 3.1 19:28:19 10° SE 19:33:20 61° NE 19:38:22 10° NNW
H-2A R/B 3.8 19:30:37 10° NE 19:33:32 19° N 19:36:29 10° NW
Okean 3 3.5 19:29:34 10° NNW 19:33:48 87° WSW 19:38:00 10° SSE
Iridium 2 4.4 19:30:13 10° NNW 19:34:03 60° W 19:37:51 10° S
deb Kosmos-1763 4.2 19:30:41 10° SW 19:34:31 86° SSE 19:38:22 10° NE
Cosmos 2082 Rocket 2.3 19:29:11 10° WSW 19:34:51 89° NNW 19:40:32 10° E
Cosmos 1184 Rocket 3.1 19:32:28 10° NNW 19:35:41 45° NE 19:38:53 10° SE
Cosmos 1570 Rocket 4.3 19:31:37 10° W 19:36:50 60° N 19:42:03 10° ENE
Cosmos 1626 4.4 19:36:40 10° WNW 19:39:28 19° NNW 19:42:16 10° NNE
GEOS 3 Rocket 4.4 19:34:28 10° E 19:39:41 46° SSE 19:44:53 10° WSW
Cosmos 2034 Rocket 4.1 19:34:16 10° NNW 19:40:42 75° ENE 19:47:07 10° SSE
Cosmos 1674 Rocket 3.9 19:36:53 10° NNW 19:41:17 74° WSW 19:45:37 10° S
Okean 2 4.3 19:37:39 10° NNW 19:41:24 30° NE 19:45:06 10° ESE
Sich 1 4.0 19:37:18 10° SW 19:41:35 50° NW 19:45:55 10° NNE
Cosmos 1763 Rocket 3.7 19:37:54 10° W 19:43:01 66° NNW 19:48:11 10° ENE
Cosmos 1943 3.7 19:38:28 10° WNW 19:44:04 64° SW 19:49:41 10° SE
Cosmos 921 Rocket 4.0 19:40:50 10° NW 19:45:17 55° WSW 19:49:43 10° SSE
Cosmos 2208 Rocket 4.4 19:41:33 10° W 19:47:00 61° N 19:52:25 10° ENE
COSMOS 2406 3.3 19:42:18 10° WNW 19:48:00 89° N 19:53:44 10° ESE
Cosmos 1340 Rocket 3.7 19:45:00 10° NNW 19:48:42 32° NE 19:52:20 10° ESE
Terra 3.1 19:45:18 10° ENE 19:49:14 26° NNE 19:53:10 10° NW
Cosmos 1408 2.7 19:47:39 10° SSW 19:51:26 82° WNW 19:55:12 10° NNE
SL-27 R/B 3.3 19:47:59 10° WNW 19:51:30 42° N 19:54:54 10° ENE
Cosmos 1634 Rocket 4.1 19:46:06 10° NNW 19:52:13 57° NE 19:58:19 10° SE
USA 186 2.2 19:49:39 10° SE 19:52:52 45° ENE 19:56:05 10° NNW
CZ-4B R/B 3.9 19:52:06 10° N 19:53:53 14° NNW 19:55:38 10° WNW
Cosmos 1470 Rocket 4.1 19:50:36 10° SW 19:55:05 65° WNW 19:59:34 10° NNE
NOAA 11 4.4 19:50:26 10° ESE 19:55:41 52° NE 20:00:59 10° NNW
Cosmos 1538 Rocket 4.1 19:51:29 10° SW 19:56:49 72° SE 20:02:06 10° NE
Cosmos 1437 Rocket 4.3 19:54:53 10° SE 19:57:43 18° E 20:00:34 10° NE
Meteor 1-4 Rocket 4.5 19:57:42 11° E 19:57:52 11° ENE 19:59:01 10° ENE
SPOT 1/Viking Rocket 4.4 19:53:18 10° E 19:57:56 34° NNE 20:02:35 10° NW
Iridium 4 Rocket 3.4 19:53:12 10° N 19:58:31 67° ENE 20:03:18 10° SSE
ATLAS 3B R/B 3.6 19:52:41 10° SSW 19:58:36 30° SE 20:04:12 10° E
Cosmos 1992 Rocket 4.0 19:54:25 10° WNW 19:59:43 79° NNE 20:05:00 10° ESE
HJ-1C 3.4 19:56:51 10° SSE 20:00:17 82° ENE 20:03:44 10° NNW
Cosmos 1833 4.4 19:55:32 10° SW 20:01:14 60° SE 20:06:59 10° ENE
FengYun 1-2 T 4.5 19:57:01 10° SSE 20:02:32 76° WSW 20:08:05 10° NNW
SL-16 R/B 4.3 19:58:00 10° WNW 20:02:55 31° WSW 20:07:48 10° S
Cosmos 841 Rocket 3.8 19:59:12 10° W 20:04:21 65° NNW 20:09:30 10° ENE
Cosmos 923 Rocket 4.2 19:59:39 10° SSW 20:04:50 57° SE 20:10:05 10° NE
Meteor 1-28 Rocket 3.1 20:01:39 10° NNE 20:05:26 73° ESE 20:09:10 10° SSW
Cosmos 2123 Rocket 4.0 19:59:46 10° S 20:05:56 78° ESE 20:12:10 10° NNE
Cosmos 1908 Rocket 4.3 20:02:36 10° SSE 20:06:32 31° E 20:10:27 10° NNE
Meteor 1-23 Rocket 4.4 20:01:24 10° NNW 20:07:12 64° NE 20:13:01 10° SE
YAOGAN 1 4.3 20:04:21 10° SSW 20:08:26 38° W 20:12:32 10° NNW
Cosmos 192 4.4 20:03:47 10° SW 20:08:46 77° SE 20:13:45 10° NE
SKYMED 2 3.9 20:04:54 10° NNE 20:09:07 45° E 20:13:19 10° S
Cosmos 1633 Rocket 4.3 20:06:21 10° WSW 20:10:36 43° NW 20:14:52 10° NNE
Cosmos 1733 Rocket 3.3 20:06:54 10° S 20:11:04 47° E 20:15:15 10° NNE
Cosmos 2227 Rocket 3.0 20:06:23 10° S 20:11:11 29° ESE 20:16:01 10° ENE
SPOT 5 3.8 20:07:02 11° E 20:11:46 38° NE 20:16:42 10° NNW
H-2A R/B 2.7 20:07:38 10° ESE 20:12:45 43° NE 20:17:54 10° NNW
YAOGAN 6 2.7 20:09:37 10° SE 20:13:10 54° ENE 20:16:41 10° NNW
Cosmos 2219 3.6 20:08:08 10° SSW 20:13:26 43° SE 20:18:47 10° ENE
Timation 2 Rocket 4.0 20:08:04 10° WSW 20:14:23 78° SSE 20:20:04 12° ENE
Cosmos 1515 4.1 20:12:10 10° NNW 20:15:51 44° NE 20:19:32 10° SE
Cosmos 2112 Rocket 4.2 20:10:44 10° SSW 20:15:57 53° SE 20:21:10 10° NE
Cosmos 1975 Rocket 3.1 20:13:00 10° NNW 20:17:27 85° WSW 20:21:56 10° SSE
COSMOS 2487 3.3 20:14:13 10° W 20:17:40 44° N 20:20:47 12° ENE
CZ-4C R/B 3.8 20:12:40 10° W 20:18:30 39° SSW 20:25:11 10° SE
ERS-1 Rocket 3.4 20:15:58 10° ESE 20:20:46 45° NE 20:25:35 10° NNW
Cosmos 1939 Rocket 2.9 20:17:49 10° SE 20:21:56 67° ENE 20:25:59 10° NNW
Spot 2 Rocket 3.5 20:18:01 10° SE 20:23:06 74° ENE 20:28:13 10° NNW
Meteor 1-13 Rocket 4.2 20:17:30 10° NNW 20:23:10 89° WSW 20:28:44 10° SSE
Cosmos 468 Rocket 4.3 20:18:18 10° W 20:23:31 60° N 20:28:06 14° ENE
Helios 1A 3.7 20:20:23 13° ESE 20:23:45 37° NE 20:27:41 10° NNW
Cosmos 2297 Rocket 3.0 20:19:50 10° S 20:24:43 31° ESE 20:29:38 10° ENE
Cosmos 1633 3.1 20:21:42 10° SSE 20:24:59 34° E 20:28:19 10° NNE
Cosmos 1825 2.9 20:23:20 10° SW 20:27:04 56° WNW 20:30:51 10° NNE
Cosmos 1892 4.3 20:24:52 10° WSW 20:28:23 34° NW 20:31:54 10° NNE
Resurs 1-3 3.6 20:24:02 10° SSE 20:28:27 80° ENE 20:32:53 10° NNW
CZ-2C R/B 4.3 20:27:13 13° E 20:31:27 32° NNE 20:36:12 10° NW
Cosmos 1833 Rocket 2.7 20:27:56 10° W 20:33:39 86° N 20:38:21 16° E
ATLAS CENTAUR R/B 3.5 20:32:52 10° W 20:35:53 21° SW 20:39:03 10° SSE
Cosmos 1356 Rocket 4.3 20:32:16 10° NNW 20:36:08 33° NE 20:38:41 18° E
Cosmos 773 Rocket 4.0 20:32:24 10° SW 20:37:44 88° SE 20:43:04 10° NE
Cosmos 1356 4.4 20:34:47 10° NNW 20:38:01 32° NE 20:39:53 19° E
Cosmos 1869 Rocket 3.8 20:34:44 10° SSW 20:39:06 72° WNW 20:43:31 10° NNE
ALOS 2 4.4 20:36:11 10° ENE 20:39:19 20° N 20:42:33 10° NW
MetOp-A 4.3 20:34:11 10° SE 20:39:27 58° NE 20:44:44 10° NNW
Cosmos 332 Rocket 4.0 20:34:37 10° WNW 20:39:30 63° NNE 20:43:10 17° E
Meteor 2-3 Rocket 4.5 20:33:58 10° SW 20:39:43 58° NW 20:45:29 10° NNE
Cosmos 540 Rocket 3.8 20:35:46 10° W 20:40:52 63° NNW 20:45:24 13° ENE
ERS-2 3.5 20:37:52 10° S 20:41:25 42° WSW 20:44:59 10° NNW
H-2A R/B 4.2 20:38:08 10° S 20:41:52 42° W 20:45:36 10° NNW
Meteor 1-20 Rocket 4.5 20:36:22 10° S 20:41:57 50° E 20:47:35 10° NNE
SJ-11-01 4.3 20:37:25 10° SSE 20:42:11 80° ENE 20:46:57 10° NNW
SL-16 R/B 3.6 20:36:39 10° NE 20:42:26 43° NNW 20:48:15 10° W
Cosmos 304 Rocket 4.1 20:37:40 10° WNW 20:42:27 57° N 20:46:08 17° E
Aureole 3 3.5 20:38:26 10° S 20:42:52 53° ESE 20:46:27 10° NNE
Okean 1-7 Rocket 4.0 20:38:42 10° NNW 20:42:59 44° NE 20:46:16 16° ESE
Resurs 01 Rocket 1.7 20:40:14 10° SSE 20:44:41 87° WSW 20:49:11 10° NNW
SJ-6B 3.5 20:41:06 10° S 20:44:57 59° WSW 20:48:55 10° NNW
Okean 1 4.4 20:41:03 10° NNW 20:44:57 49° W 20:48:50 10° S
Cosmos 1680 Rocket 3.5 20:39:58 10° SW 20:45:17 70° SE 20:50:37 10° NE
Cosmos 1862 3.6 20:42:36 10° SSW 20:46:35 72° WNW 20:50:35 10° NNE
Meteor 1-14 Rocket 4.4 20:40:49 10° S 20:46:35 57° ESE 20:52:26 10° NNE
FREGAT/IRIS 4.2 20:43:50 10° S 20:46:40 38° W 20:49:31 10° NNW
Cosmos 1536 Rocket 3.5 20:43:26 10° NNW 20:47:57 80° ENE 20:52:24 10° SSE
USA 161 2.8 20:46:30 10° N 20:47:57 23° WNW 20:49:28 10° WSW
CZ-2C R/B 3.6 20:44:17 10° NNE 20:48:50 76° ESE 20:53:17 10° SSW
Tsikada Rocket 4.3 20:48:12 10° SSE 20:54:19 48° E 21:00:24 10° NNE
Cosmos 2082 4.2 20:49:48 10° S 20:54:56 37° ESE 21:00:01 10° ENE
COSMO-SKYMED 1 2.5 20:53:03 10° NNE 20:57:27 78° ESE 21:01:49 10° SSW
SeaSat 1 4.2 20:53:22 10° S 20:57:48 32° WSW 21:02:15 10° WNW
Cosmos 1842 4.3 20:55:04 10° NNW 20:58:33 30° NE 21:00:09 22° E
Cosmos 292 Rocket 4.2 20:54:27 10° W 20:59:18 59° N 21:03:09 16° ENE
Meteor 2-4 Rocket 4.1 20:53:33 10° NNW 20:59:28 73° WSW 21:05:14 10° SSE
NOSS 3-2 (C) 4.5 20:54:21 10° SSW 20:59:48 30° SE 21:03:44 18° E
Cosmos 405 2.9 20:56:33 10° SSW 21:00:04 68° ESE 21:03:38 10° NNE
Cosmos 1025 Rocket 3.1 20:58:00 10° NNW 21:02:24 64° ENE 21:06:01 15° SE
MTI 3.6 20:59:41 10° NNE 21:02:54 69° ESE 21:06:06 10° SSW
CZ-2D R/B 4.2 20:59:27 10° S 21:03:17 51° WSW 21:07:08 10° NNW
Cosmos 1782 Rocket 3.8 21:00:06 10° S 21:04:19 45° E 21:08:32 10° NNE
CZ-4B DEB 4.4 21:01:41 14° SSE 21:04:39 76° ENE 21:08:10 10° NNW
Cosmos 1814 Rocket 4.3 21:01:04 10° WNW 21:06:12 59° N 21:09:49 19° E
Cosmos 1607 4.4 21:01:02 10° WSW 21:07:19 54° S 21:11:43 20° ESE
H-2A R/B 3.6 21:06:27 16° ENE 21:08:34 23° NNE 21:11:48 10° NNW
Thor Agena Rocket 3.9 21:03:50 10° NNE 21:08:41 39° E 21:13:26 10° SSE
Cosmos 371 Rocket 3.4 21:03:47 10° WNW 21:08:42 69° NNE 21:11:47 23° E
Cosmos 1184 Rocket 3.8 21:06:33 10° NNW 21:09:47 47° WSW 21:12:58 10° S
Landsat 7 4.3 21:07:19 22° ESE 21:10:05 44° NE 21:14:37 10° NNW
ARGOS 3.2 21:05:25 13° SE 21:10:19 72° NE 21:15:44 10° NNW
CSL-04 DEB 4.4 21:06:32 10° SSE 21:10:28 81° WSW 21:14:27 10° NNW
Envisat 3.7 21:07:31 10° S 21:12:32 56° WSW 21:17:34 10° NNW
Cosmos 1602 4.0 21:09:17 10° SSE 21:12:58 42° E 21:16:40 10° NNE
Cosmos 1707 4.3 21:10:18 10° NNW 21:13:26 22° NNE 21:14:44 19° ENE
EO 1 Del DPAF 3.2 21:09:37 10° NNE 21:13:29 64° ESE 21:17:18 10° SSW
Meteor 1-25 Rocket 4.1 21:08:30 10° S 21:14:02 67° ESE 21:19:39 10° NNE
Sich 1 Rocket 3.6 21:09:42 10° S 21:14:06 58° ESE 21:18:28 10° NNE
Cosmos 2279 Rocket 4.0 21:11:29 10° NNW 21:17:46 85° ENE 21:24:03 10° SSE
GEOS 3 Rocket 4.2 21:14:56 21° ESE 21:18:27 50° S 21:23:44 10° W
CENTAUR R/B 3.6 21:13:29 10° S 21:18:48 26° SE 21:21:31 21° E
Okean 2 3.3 21:14:36 10° NNW 21:18:49 78° ENE 21:22:04 16° SSE
Landsat 4 3.5 21:15:18 10° NNE 21:19:04 74° ESE 21:22:49 10° SSW
Cosmos 2082 Rocket 2.2 21:13:28 10° WNW 21:19:08 90° NNE 21:22:44 23° ESE
SL-08 RB Rocket 3.8 21:15:57 19° SE 21:19:12 64° NE 21:23:51 10° NNW
Cosmos 1570 Rocket 4.1 21:14:23 10° WNW 21:19:38 67° NNE 21:22:49 24° E
Cosmos 1066 Rocket 4.3 21:15:38 10° NNW 21:21:34 79° ENE 21:26:42 14° SSE
USA 186 2.9 21:20:26 10° S 21:23:41 46° WSW 21:26:55 10° NNW
Cosmos 1763 Rocket 3.8 21:20:17 10° WNW 21:25:24 61° N 21:28:36 23° E
CZ-4B R/B 4.0 21:24:29 10° NNE 21:25:25 11° N 21:26:20 10° NNW
Cosmos 1340 Rocket 2.7 21:21:37 10° NNW 21:25:42 80° ENE 21:28:15 22° SSE
Terra 2.3 21:23:55 25° E 21:26:14 44° NE 21:30:47 10° NNW
Meteor 1-11 Rocket 4.0 21:21:15 10° SSE 21:26:37 44° E 21:32:07 10° NNE
SL-27 R/B 2.8 21:23:35 10° WNW 21:27:11 55° NNE 21:28:33 33° E
Okean 2 Rocket 3.3 21:22:58 10° S 21:27:13 47° E 21:31:31 10° NNE
Cosmos 1238 Rocket 4.0 21:24:47 10° NNW 21:27:35 24° NE 21:28:11 23° ENE
CRYOSAT 2 4.3 21:23:51 10° N 21:28:48 85° E 21:33:42 10° S
USA 32 4.0 21:24:06 10° S 21:29:21 82° E 21:34:38 10° NNE
Cosmos 2208 Rocket 4.2 21:24:25 10° WNW 21:29:54 69° NNE 21:33:03 26° E
Cosmos 2285 Rocket 4.0 21:24:23 10° SW 21:30:45 72° SE 21:37:12 10° NE
Cosmos 1536 3.4 21:30:01 29° SE 21:31:11 35° E 21:34:55 10° NNE
IGS 5A 4.1 21:30:20 29° E 21:31:50 40° NE 21:35:45 10° NNW
Meteor 1-4 Rocket 3.0 21:31:47 36° ESE 21:32:03 36° E 21:35:27 10° NNE
COSMOS 2406 3.5 21:26:40 10° WNW 21:32:17 62° SW 21:36:17 20° SE
CARTOSAT-1 4.1 21:31:34 29° E 21:33:16 43° NE 21:37:24 10° NNW
Cosmos 1437 Rocket 2.9 21:29:16 10° S 21:33:18 55° ESE 21:37:22 10° NNE
NOAA 11 4.4 21:30:46 10° SSE 21:36:13 73° WSW 21:41:42 10° NNW
Cosmos 2151 Rocket 4.0 21:33:33 17° SSE 21:36:37 39° E 21:40:47 10° NNE
SWAS 4.4 21:32:26 10° W 21:36:47 80° S 21:38:41 33° ESE
SPOT 1/Viking Rocket 3.6 21:33:47 24° SE 21:36:51 65° NE 21:41:59 10° NNW
MetOp-B 4.1 21:32:30 16° SSE 21:36:53 86° ENE 21:42:19 10° NNW
Cosmos 1634 Rocket 4.3 21:31:46 10° NNW 21:37:54 67° W 21:44:01 10° S
Cosmos 1538 Rocket 4.3 21:33:50 10° WSW 21:39:10 69° NNW 21:43:24 16° ENE
Cosmos 2346 Rocket 4.4 21:34:10 10° S 21:40:13 61° E 21:46:14 10° NNE
Cosmos 1908 Rocket 3.6 21:39:34 10° SSW 21:44:04 89° WNW 21:48:34 10° NNE
Cosmos 1833 4.2 21:39:32 10° WSW 21:45:24 89° SSE 21:49:17 22° ENE
SKYMED 2 4.0 21:41:11 10° NNE 21:45:31 64° WNW 21:49:51 10° SW
Cosmos 841 Rocket 3.7 21:41:39 10° WNW 21:46:48 61° N 21:49:35 27° E
YAOGAN 6 3.8 21:43:23 10° S 21:46:51 42° W 21:50:18 10° NNW
Cosmos 923 Rocket 4.2 21:41:39 10° WSW 21:46:59 77° NNW 21:51:40 14° ENE
ATLAS 3B R/B 3.1 21:41:35 10° SW 21:48:10 46° SSE 21:51:28 27° ESE
Cosmos 1733 Rocket 3.6 21:44:36 10° SW 21:48:53 58° WNW 21:53:13 10° NNE
SPOT 5 3.1 21:46:16 25° SE 21:49:23 75° ENE 21:54:47 10° NNW
Cosmos 1892 Rocket 3.5 21:46:17 10° NNW 21:50:47 70° ENE 21:52:45 32° SE
Cosmos 1515 4.3 21:47:56 10° NNW 21:51:42 56° WSW 21:54:55 13° S
H-2A R/B 2.1 21:48:03 20° SSE 21:51:54 87° ENE 21:57:25 10° NNW
Cosmos 1602 Rocket 4.1 21:48:25 10° NNW 21:52:47 45° NE 21:54:05 35° E
COSMOS 2487 3.2 21:50:04 10° WNW 21:53:31 45° NNE 21:54:34 34° ENE
Cosmos 2227 Rocket 2.2 21:48:57 10° SW 21:54:31 60° SE 21:58:38 18° ENE
NOSS 3-2 (A) 4.1 21:49:07 10° SW 21:55:08 41° SSE 21:58:14 27° ESE
Cosmos 158 Rocket 3.9 21:51:12 10° SSW 21:55:58 54° SE 22:00:48 10° NE
Cosmos 1816 Rocket 4.4 21:50:30 10° S 21:56:51 75° ESE 22:03:12 10° NNE
Cosmos 1939 Rocket 4.3 21:53:14 10° S 21:57:08 40° W 22:01:00 10° NNW
Cosmos 2219 3.1 21:51:33 10° WSW 21:57:14 78° SSE 22:01:11 21° ENE
Cosmos 2112 Rocket 4.1 21:52:37 10° WSW 21:58:02 81° NNW 22:02:48 13° ENE
Helios 1A 2.9 21:57:00 29° SSE 21:59:07 87° WSW 22:03:23 10° NNW
ERS-1 Rocket 3.0 21:55:57 21° SSE 21:59:24 83° WSW 22:04:30 10° NNW
Cosmos 1633 2.9 21:56:13 10° SW 21:59:48 64° WNW 22:03:25 10° NNE
Spot 1 4.2 21:57:43 31° SE 21:59:53 82° ENE 22:04:44 10° NNW
Timation 2 Rocket 3.9 21:55:38 10° W 22:01:53 85° S 22:05:02 31° E
MINOTAUR IV R/B 4.5 21:57:44 10° SW 22:02:14 71° SE 22:04:30 29° ENE
SAR-Lupe-4 3.9 22:02:03 45° ENE 22:02:28 48° NE 22:05:57 10° NNW
Okean 1 Rocket 3.8 22:06:27 33° ENE 22:06:27 33° ENE 22:09:48 10° NNE
Cosmos 468 Rocket 4.1 22:00:42 10° WNW 22:05:58 73° NNE 22:08:15 35° ESE
SL-24 DEB 4.1 22:01:21 10° N 22:06:02 81° E 22:10:40 10° S
Cosmos 2297 Rocket 2.2 22:02:29 10° SW 22:08:06 62° SE 22:11:59 20° ENE
Meteor 2-11 Rocket 4.4 22:02:07 10° NNW 22:08:17 82° ENE 22:12:00 26° SSE
Cosmos 1048 Rocket 4.1 22:03:17 10° SSW 22:08:25 53° SE 22:13:29 10° NE
CZ-2C R/B 3.5 22:08:17 33° ESE 22:10:36 53° NE 22:15:57 10° NNW
Nadezhda 4 Rocket 4.5 22:09:06 31° SE 22:11:14 40° E 22:17:04 10° NNE
DNEPR-1 R/B 4.5 22:07:55 10° SW 22:11:52 33° SSE 22:11:52 33° SSE
USA 238 DEB 4.1 22:06:17 10° WSW 22:12:53 47° SSE 22:15:47 31° ESE
Cosmos 1356 3.4 22:09:26 10° NNW 22:12:59 83° WSW 22:13:38 56° SSE
USA 238 4.1 22:06:24 10° WSW 22:13:00 47° SSE 22:15:53 31° ESE
Cosmos 1356 Rocket 3.3 22:09:28 10° NNW 22:13:42 84° ENE 22:14:52 46° SE
ARGOS Delta rocket 3.8 22:09:19 10° NNE 22:14:28 88° ESE 22:19:19 10° SSW
ALOS 2 3.8 22:13:34 26° ENE 22:14:43 30° NE 22:18:35 10° NNW
Helios 1B rocket 4.5 22:13:57 10° NE 22:15:02 15° NE 22:15:02 15° NE
Cosmos 1833 Rocket 2.7 22:12:00 10° WNW 22:17:41 75° SSW 22:20:03 36° SE
Cosmos 773 Rocket 4.4 22:14:44 10° W 22:20:01 63° NNW 22:23:27 22° ENE
Cosmos 332 Rocket 3.8 22:15:19 10° NW 22:20:14 80° SW 22:21:52 42° SE
Okean 1-7 Rocket 3.8 22:17:01 10° NNW 22:21:25 66° WSW 22:23:44 27° S
Resurs 01 Rocket 3.5 22:17:48 10° SSW 22:21:44 30° W 22:25:41 10° NNW
Cosmos 540 Rocket 3.7 22:17:56 10° WNW 22:23:03 61° NNE 22:25:13 33° E
Cosmos 304 Rocket 3.8 22:18:18 10° WNW 22:23:09 77° NNE 22:24:38 45° ESE
Cosmos 1378 3.7 22:19:44 10° NNW 22:23:19 41° NE 22:23:20 41° NE
Aureole 3 4.4 22:20:42 10° SW 22:24:59 46° NW 22:28:27 10° NNE
SL-16 R/B 3.9 22:19:38 10° ENE 22:25:07 34° N 22:30:38 10° WNW
SAR-Lupe-1 4.2 22:26:25 58° ENE 22:26:29 58° NE 22:30:03 10° NNW
Cosmos 1300 Rocket 3.5 22:26:08 51° SE 22:26:45 57° ESE 22:31:03 10° NNE
Cosmos 1680 Rocket 3.8 22:22:13 10° WSW 22:27:35 70° NNW 22:31:34 18° ENE
Cosmos 1553 Rocket 4.1 22:21:37 10° NNW 22:27:49 64° ENE 22:30:21 37° SE
GP-B 3.4 22:30:22 46° E 22:30:35 46° ENE 22:34:52 10° N
Aureole 3 Rocket 4.2 22:28:30 10° NNW 22:30:29 21° NNE 22:30:29 21° NNE
Cosmos 1626 Rocket 3.5 22:26:48 10° NNW 22:31:16 68° ENE 22:32:05 54° ESE
Cosmos 724 4.4 22:26:52 10° WSW 22:32:30 53° S 22:34:07 41° SE
COSMO-SKYMED 1 3.9 22:29:23 10° NNE 22:33:29 41° NW 22:37:35 10° WSW
ASTEX 1 3.4 22:28:36 10° N 22:33:37 64° E 22:35:12 41° SSE
Cosmos 1500 4.4 22:35:25 30° NE 22:35:25 30° NE 22:37:41 10° NNE
Cosmos 1842 3.1 22:31:11 10° NNW 22:35:06 83° ENE 22:35:30 71° SE
S3M 4.1 22:30:44 10° NNW 22:37:06 65° ENE 22:39:29 39° SE
Meteor 2-5 Rocket 4.0 22:31:32 10° NNW 22:37:14 56° NE 22:38:58 40° ESE
Cosmos 2082 3.6 22:32:54 10° SW 22:38:33 71° SSE 22:41:54 25° ENE
Tsikada Rocket 4.2 22:33:17 10° SSW 22:39:44 78° WNW 22:46:10 10° NNE
Cosmos 1025 Rocket 4.1 22:35:47 10° NNW 22:39:58 43° W 22:42:56 18° SSW
Cosmos 292 Rocket 4.0 22:35:14 10° WNW 22:40:07 63° NNE 22:41:39 41° ENE
Cosmos 1782 Rocket 4.0 22:37:48 10° SW 22:42:12 61° WNW 22:46:34 10° NNE
H-2A R/B 2.6 22:43:34 40° ENE 22:43:53 40° NE 22:47:47 10° NNW
Cosmos 1417 Rocket 4.4 22:38:23 10° NNW 22:44:37 75° ENE 22:46:56 41° SE
Meteor 2-20 4.4 22:42:43 23° S 22:46:42 65° E 22:52:49 10° NNE
EO 1 Del DPAF 4.5 22:43:58 10° NNE 22:47:39 43° NW 22:51:18 10° WSW
Landsat 7 3.8 22:46:12 44° SSE 22:47:43 79° WSW 22:52:32 10° NNW
Thor Agena Rocket 3.5 22:43:17 10° NNE 22:48:29 84° WNW 22:53:35 10° SW
Cosmos 1814 Rocket 3.9 22:43:29 10° WNW 22:48:42 79° NNE 22:50:02 50° ESE
Cosmos 1602 4.3 22:45:02 10° SW 22:48:53 58° WNW 22:52:45 10° NNE
Cosmos 371 Rocket 3.4 22:44:23 10° NW 22:49:16 67° SW 22:50:27 49° SSE
NOSS 3-2 (C) 4.0 22:43:21 10° SW 22:49:32 45° SSE 22:51:11 39° SE
Cosmos 1707 3.1 22:46:19 10° NNW 22:49:56 51° NE 22:49:56 51° NE
ARGOS 3.9 22:46:55 17° S 22:50:54 49° WSW 22:56:12 10° NNW
Meteor 1-21 4.4 22:45:21 10° NNW 22:51:11 72° WSW 22:53:56 33° S
Sich 1 Rocket 4.5 22:48:06 10° SW 22:52:28 50° NW 22:56:48 10° NNE
Cosmos 1626 4.3 22:50:25 10° NNW 22:52:57 17° NNE 22:53:48 16° NE
Cosmos 1607 4.4 22:47:47 10° W 22:54:00 49° SSW 22:55:50 39° SSE
Cosmos 2026 Rocket 4.5 22:54:16 37° E 22:54:35 37° E 23:00:06 10° NNE
Cosmos 468 4.4 22:50:58 10° SW 22:56:14 83° SE 23:01:30 10° NE
CZ-4B R/B 3.8 22:56:42 14° NNE 22:56:57 14° NNE 22:58:40 10° N
GEOS 3 Rocket 4.4 22:56:02 34° S 22:57:17 39° SSW 23:02:22 10° W
STPSAT 2 (USA 217) 4.5 22:52:48 10° WSW 22:57:20 88° SSE 22:58:26 52° ENE
Cosmos 2227 4.3 22:54:49 10° SSW 23:00:18 51° SE 23:00:33 50° SE
DELTA 2 DEB (DPAF) 4.5 23:00:57 49° ENE 23:01:19 51° NE 23:05:40 10° NNW
Meteor 1-5 Rocket 4.3 22:55:21 10° SSW 23:01:21 85° ESE 23:07:22 10° NNE
Cosmos 1953 Rocket 3.9 22:57:34 10° NNW 23:01:54 50° NE 23:02:03 50° ENE
Cosmos 1340 Rocket 4.4 22:58:19 10° NNW 23:01:56 32° W 23:03:54 20° SW
Cosmos 1570 Rocket 4.0 22:56:49 10° NW 23:02:04 74° SW 23:03:15 54° SSE
SL-27 R/B 2.8 22:58:54 10° NW 23:02:11 62° W 23:02:11 62° W
Cosmos 2082 Rocket 2.4 22:57:36 10° WNW 23:03:09 60° SW 23:04:35 46° SSE
Terra 1.8 23:02:48 54° S 23:03:52 79° WSW 23:08:41 10° NNW
Alouette 2 Rocket 3.6 23:02:26 25° SSW 23:04:46 88° WNW 23:10:10 10° NNE
Okean 2 Rocket 3.6 23:00:56 10° SW 23:05:19 60° WNW 23:09:46 10° NNE
Spot 4 3.8 23:05:21 61° ESE 23:06:07 75° ENE 23:11:00 10° NNW
Meteor 1-4 Rocket 2.9 23:05:51 38° WSW 23:07:03 63° WNW 23:10:45 10° NNE
IGS 5A 3.4 23:06:48 69° SSW 23:07:10 75° WSW 23:11:22 10° NNW
Cosmos 1536 3.0 23:05:39 32° SW 23:07:27 73° WNW 23:11:34 10° NNE
Cosmos 1763 Rocket 3.4 23:02:25 10° WNW 23:07:37 86° NE 23:08:37 59° ESE
Cosmos 1238 Rocket 3.0 23:04:24 10° NNW 23:07:15 57° N 23:07:15 57° N
CENTAUR R/B 3.1 23:01:45 10° SW 23:08:03 43° SSE 23:08:44 42° SE
YAOGAN 11 4.3 23:07:51 54° S 23:08:46 69° WSW 23:13:20 10° NNW
CARTOSAT-1 3.6 23:08:41 62° SSW 23:09:16 72° WSW 23:13:38 10° NNW
Cosmos 1269 Rocket 3.9 23:04:14 10° SW 23:09:31 76° SE 23:14:50 10° NE
Cosmos 1437 Rocket 3.7 23:05:41 10° SW 23:09:43 51° NW 23:13:47 10° NNE
Meteor 1-11 Rocket 3.8 23:04:08 10° SSW 23:09:51 79° WNW 23:15:45 10° NNE
Cosmos 2208 Rocket 4.1 23:06:58 10° NW 23:12:27 73° SW 23:13:35 55° SSE
Cosmos 2151 Rocket 3.8 23:10:46 14° SSW 23:14:36 71° WNW 23:19:04 10° NNE
Cosmos 1825 Rocket 3.6 23:10:31 10° NNW 23:14:59 66° ENE 23:15:03 66° ENE
SPOT 1/Viking Rocket 4.1 23:14:25 33° SSW 23:16:29 53° WSW 23:21:34 10° NNW
Cosmos 389 Rocket 4.2 23:18:35 25° NNE 23:18:35 25° NNE 23:20:16 10° NNE
Cosmos 1674 4.0 23:14:10 10° NNW 23:17:17 31° NNE 23:17:17 31° NNE
Cosmos 2285 Rocket 4.2 23:11:21 10° WSW 23:17:47 73° NNW 23:24:16 10° ENE
Cosmos 1400 Rocket 3.7 23:17:22 10° NNW 23:20:52 39° NNE 23:20:52 39° NNE
Cosmos 1538 Rocket 4.4 23:16:35 10° WNW 23:21:53 61° N 23:23:45 38° ENE
CZ-2C R/B 4.1 23:17:59 10° NNE 23:21:24 23° ENE 23:21:24 23° ENE
Intercosmos 25 Rocket 4.3 23:19:14 10° NNW 23:21:32 33° N 23:21:32 33° N
Cosmos 1758 Rocket 3.6 23:23:06 10° NNW 23:27:22 68° NE 23:27:22 68° NE
SPOT 5 3.9 23:25:29 29° SSW 23:27:48 46° W 23:33:00 10° NNW
Cosmos 1455 Rocket 4.3 23:29:28 31° NE 23:29:28 31° NE 23:32:03 10° NNE
Cosmos 841 Rocket 3.3 23:23:52 10° NW 23:29:04 88° NE 23:29:41 70° ESE
COSMOS 2487 3.3 23:25:36 10° NW 23:28:20 50° NW 23:28:20 50° NW
Cosmos 923 Rocket 4.5 23:24:21 10° W 23:29:38 60° N 23:32:02 32° ENE
Cosmos 1833 4.2 23:23:58 10° W 23:29:50 89° NNE 23:31:15 54° E
Cosmos 1602 Rocket 3.7 23:26:26 10° NNW 23:30:55 67° WSW 23:31:14 65° SW
H-2A R/B 3.3 23:28:40 21° SSW 23:31:52 39° W 23:37:01 10° NNW
Cosmos 1315 Rocket 3.9 23:31:16 10° NNW 23:34:58 36° NE 23:34:58 36° NE
Meteor 1-24 Rocket 3.7 23:29:35 10° NNW 23:35:23 72° ENE 23:36:15 61° ESE
SAR-Lupe-4 4.5 23:36:20 46° WNW 23:36:20 46° WNW 23:39:22 10° NNW
Cosmos 158 Rocket 3.9 23:32:36 10° WSW 23:37:32 77° NNW 23:40:44 22° ENE
ATLAS 3B R/B 2.8 23:31:28 10° W 23:38:05 49° S 23:38:43 48° S
Cosmos 2227 Rocket 2.1 23:32:48 10° WSW 23:38:30 90° W 23:40:28 43° ENE
ERS-1 Rocket 4.5 23:35:57 19° SW 23:38:52 32° W 23:43:24 10° NNW
Cosmos 2112 Rocket 4.5 23:35:19 10° W 23:40:40 61° N 23:43:09 31° ENE
Cosmos 2219 3.2 23:35:48 10° W 23:41:31 85° N 23:43:06 50° E
Cosmos 1271 Rocket 4.0 23:43:13 35° NNE 23:43:13 35° NNE 23:45:36 10° NNE
Okean 1 Rocket 3.1 23:43:35 77° NW 23:43:35 77° NW 23:47:55 10° NNE
In-Cosmos 22 4.2 23:37:47 10° NNW 23:43:38 77° ENE 23:44:30 64° ESE
Cosmos 1627 Rocket 4.4 23:43:22 57° ESE 23:43:52 59° E 23:49:55 10° NNE
Cosmos 1743 4.4 23:46:10 26° NNE 23:46:10 26° NNE 23:47:58 10° NNE
Cosmos 1655 Rocket 4.2 23:44:30 49° E 23:44:45 49° E 23:50:45 10° NNE
Cosmos 1975 3.9 23:46:33 39° NNE 23:46:33 39° NNE 23:49:11 10° NNE
NOSS 3-2 (A) 3.9 23:38:47 10° WSW 23:45:09 49° S 23:45:37 48° SSE
Mayak 1.3 23:43:06 10° NE 23:43:34 11° NE 23:43:34 11° NE
CZ-4C R/B 3.8 23:47:11 57° N 23:47:11 57° N 23:50:30 10° NNW
Cosmos 883 Rocket 4.4 23:41:17 10° NNW 23:47:41 84° ENE 23:49:03 58° SSE
Cosmos 468 Rocket 4.1 23:42:47 10° NW 23:48:00 63° SW 23:48:24 61° SSW
Timation 2 Rocket 3.9 23:43:09 10° WNW 23:49:15 63° SSW 23:50:01 58° S
Cosmos 1048 Rocket 4.0 23:45:07 10° WSW 23:50:25 80° NNW 23:55:40 10° ENE
CZ-2C R/B 3.3 23:49:20 57° S 23:50:26 73° WSW 23:55:59 10° NNW
ALOS 2 2.8 23:50:57 63° NNE 23:50:57 63° NNE 23:55:00 10° NNW
Meteor 1-12 Rocket 4.3 23:49:52 62° SSE 23:50:46 72° ESE 23:56:47 10° NNE
Cosmos 2297 Rocket 2.1 23:46:23 10° WSW 23:52:06 89° NNW 23:53:48 48° ENE
Helios 1B rocket 3.7 23:49:05 10° NNE 23:51:25 32° NE 23:51:25 32° NE
